Weather History for Lake Charles, LA

Change the Weather History Date:

Friday, November 8, 2013

  Actual Average Record
Temperature  
Mean Temperature 54 °F -  
Max Temperature 64 °F 71 °F 84 °F (2011)
Min Temperature 45 °F 55 °F 39 °F (2008)
Degree Days  
Heating Degree Days 10    
Growing Degree Days 4 (Base 50)    
Moisture  
Dew Point 42 °F    
Average Humidity 73    
Maximum Humidity 100    
Minimum Humidity 34    
Precipitation  
Precipitation 0.00 in - - ()
Sea Level Pressure  
Sea Level Pressure 30.30 in    
Wind  
Wind Speed 5 mph (NNE)    
Max Wind Speed 12 mph    
Max Gust Speed 20 mph    
Visibility 10 miles    
Events      
Averages and records for this station are not official NWS values.
T = Trace of Precipitation, MM = Missing Value Source: NWS Daily Summary

Daily Weather History Graph

Daily Weather History Graph

Search for Another Location

Airport:

Trip Planner

Search our weather history database for the weather conditions in past years. The results will help you decide how hot, cold, wet, or windy it might be!

Date:

Astronomy

Nov. 08, 2013 Rise Set
Actual Time 6:32 AM CST 5:19 PM CST
Civil Twilight 6:07 AM CST 5:44 PM CST
Nautical Twilight 5:38 AM CST 6:13 PM CST
Astronomical Twilight 5:10 AM CST 6:41 PM CST
Moon 11:28 AM CST (11/8) 10:40 PM CST (11/8)
Length of Visible Light 11h 37m
Length of Day
10h 47m
Waxing Crescent, 33% of the Moon is Illuminated
Nov 8
Waxing Crescent
Nov 9
First Quarter
Nov 17
Full
Nov 25
Last Quarter
Dec 2
New

Hourly Weather History & Observations

Time (CST) Temp. Windchill Dew Point Humidity Pressure Visibility Wind Dir Wind Speed Gust Speed Precip Events Conditions
12:15 AM 50.5 °F - 41.9 °F 72% 30.34 in 10.0 mi North 6.9 mph - N/A   Clear
12:35 AM 50.0 °F - 41.9 °F 74% 30.35 in 10.0 mi North 5.8 mph - N/A   Clear
12:55 AM 49.6 °F - 42.1 °F 75% 30.35 in 10.0 mi North 4.6 mph - N/A   Clear
1:15 AM 49.1 °F - 42.1 °F 77% 30.34 in 10.0 mi North 6.9 mph - N/A   Clear
1:35 AM 48.9 °F - 41.9 °F 77% 30.34 in 10.0 mi North 4.6 mph - N/A   Clear
1:55 AM 48.0 °F - 41.9 °F 79% 30.34 in 10.0 mi North 3.5 mph - N/A   Clear
2:15 AM 47.5 °F - 41.2 °F 79% 30.34 in 10.0 mi North 3.5 mph - N/A   Clear
2:35 AM 46.4 °F 43.5 °F 40.8 °F 81% 30.34 in 10.0 mi North 5.8 mph - N/A   Clear
2:55 AM 47.5 °F - 41.0 °F 78% 30.33 in 10.0 mi North 5.8 mph - N/A   Clear
3:15 AM 47.3 °F - 41.0 °F 79% 30.33 in 10.0 mi North 5.8 mph - N/A   Clear
3:35 AM 46.4 °F 43.5 °F 40.5 °F 80% 30.33 in 10.0 mi North 5.8 mph - N/A   Clear
3:55 AM 45.0 °F 43.5 °F 41.0 °F 86% 30.34 in 10.0 mi North 3.5 mph - N/A   Clear
4:15 AM 45.1 °F - 40.8 °F 85% 30.33 in 10.0 mi Calm Calm - N/A   Clear
4:35 AM 45.1 °F - 40.3 °F 83% 30.35 in 10.0 mi Calm Calm - N/A   Clear
4:55 AM 45.1 °F 42.8 °F 40.5 °F 84% 30.33 in 10.0 mi NNE 4.6 mph - N/A   Clear
5:15 AM 45.9 °F 43.6 °F 40.6 °F 82% 30.33 in 10.0 mi NNE 4.6 mph - N/A   Clear
5:35 AM 46.0 °F 43.9 °F 40.6 °F 81% 30.34 in 10.0 mi North 4.6 mph - N/A   Clear
5:55 AM 45.5 °F 41.8 °F 40.5 °F 83% 30.34 in 10.0 mi NNE 6.9 mph - N/A   Clear
6:00 AM 46.4 °F 42.4 °F 41.0 °F 81% 30.34 in 10.0 mi NNE 8.1 mph - N/A   Mostly Cloudy
6:58 AM 46.4 °F 42.4 °F 41.0 °F 81% 30.36 in 10.0 mi NNE 8.1 mph - N/A   Mostly Cloudy
7:58 AM 48.2 °F - 41.0 °F 76% 30.37 in 10.0 mi NNE 8.1 mph - N/A   Mostly Cloudy
8:50 AM 53.6 °F - 41.0 °F 62% 30.38 in 10.0 mi NE 6.9 mph - N/A   Scattered Clouds
9:50 AM 57.2 °F - 37.4 °F 48% 30.38 in 10.0 mi ENE 10.4 mph 19.6 mph N/A   Scattered Clouds
10:50 AM 60.8 °F - 37.4 °F 42% 30.36 in 10.0 mi ENE 11.5 mph 18.4 mph N/A   Scattered Clouds
11:55 AM 62.6 °F - 37.4 °F 39% 30.32 in 10.0 mi NE 11.5 mph 18.4 mph N/A   Scattered Clouds
12:50 PM 64.4 °F - 37.4 °F 37% 30.38 in 10.0 mi East 11.5 mph 18.4 mph N/A   Scattered Clouds
1:52 PM 64.4 °F - 35.6 °F 34% 30.26 in 10.0 mi East 11.5 mph 18.4 mph N/A   Scattered Clouds
2:50 PM 64.4 °F - 35.6 °F 34% 30.25 in 10.0 mi NE 5.8 mph - N/A   Scattered Clouds
3:50 PM 64.4 °F - 37.4 °F 37% 30.25 in 10.0 mi ENE 5.8 mph - N/A   Scattered Clouds
4:50 PM 62.6 °F - 41.0 °F 45% 30.24 in 10.0 mi Calm Calm - N/A   Scattered Clouds
5:50 PM 57.2 °F - 42.8 °F 59% 30.23 in 10.0 mi ENE 4.6 mph - N/A   Scattered Clouds
6:50 PM 55.4 °F - 44.6 °F 67% 30.23 in 10.0 mi Calm Calm - N/A   Clear
7:50 PM 51.8 °F - 46.4 °F 82% 30.24 in 10.0 mi Calm Calm - N/A   Clear
8:50 PM 53.6 °F - 44.6 °F 72% 30.24 in 10.0 mi Calm Calm - N/A   Clear
9:50 PM 51.8 °F - 46.4 °F 82% 30.24 in 10.0 mi Calm Calm - N/A   Clear
9:55 PM 51.3 °F - 46.2 °F 83% 30.24 in 10.0 mi Calm Calm - N/A   Clear
10:15 PM 51.8 °F - 46.6 °F 82% 30.24 in 10.0 mi Calm Calm - N/A   Clear
10:35 PM 50.9 °F - 47.3 °F 87% 30.23 in 10.0 mi Calm Calm - N/A   Clear
10:55 PM 50.4 °F - 48.0 °F 92% 30.23 in 10.0 mi Calm Calm - N/A   Clear
11:15 PM 50.0 °F - 49.8 °F 99% 30.22 in 10.0 mi Calm Calm - N/A   Clear
11:35 PM 50.2 °F - 50.2 °F 100% 30.22 in 10.0 mi Calm Calm - N/A   Clear
11:55 PM 50.9 °F - 48.0 °F 90% 30.21 in 10.0 mi Calm Calm - N/A   Clear